Regional Weather Roundup
Issued by NWS

Home | Current Version | Previous Version | Text Only | Print | Product List | Glossary On
Versions: 1 2 3 4 5 6 7 8 9 10 11 12 13 14 15 16 17 18 19 20 21 22 23 24 25 26 27 28 29 30 31 32 33 34 35 36 37 38 39 40 41 42 43 44 45 46 47 48 49 50
000
ASUS43 KDTX 210910
RWRMI
MICHIGAN HOURLY REGIONAL WEATHER ROUNDUP
NATIONAL WEATHER SERVICE DETROIT/PONTIAC MI
500 AM EDT THU AUG 21 2014

NOTE: "FAIR" INDICATES FEW OR NO CLOUDS BELOW 12,000 FEET WITH NO
SIGNIFICANT WEATHER AND/OR OBSTRUCTION TO VISIBILITY.

MIZ047>049-052>055-059>063-066>070-074>076-081>083-211000-
SOUTHEAST LOWER MICHIGAN

CITY           SKY/WX    TMP DP  RH WIND       PRES   REMARKS
ADRIAN         CLEAR     64  63  96 CALM      29.97F
ALMA           CLOUDY    58  58  97 CALM      29.97S FOG
ANN ARBOR      PTCLDY    63  60  90 W3        29.96S
BAD AXE        MOCLDY    64  64 100 NW5       29.96R FOG
CARO           CLEAR     61  61  98 CALM      29.95S
DETROIT CITY   CLEAR     70  63  78 NW5       29.95S
DETROIT        MOCLDY    67  63  87 W3        29.96S
FLINT          CLEAR     64  60  87 W3        29.97S
GROSSE ILE     MOCLDY    70  64  83 CALM      29.95R
HILLSDALE      PTCLDY    69  69 100 W3        29.98S
HOWELL         CLEAR     62  61  97 CALM      29.97S FOG

CITY           SKY/WX    TMP DP  RH WIND       PRES   REMARKS
JACKSON        CLEAR     65  63  93 CALM      29.96F
LAMBERTVILLE   CLEAR     66  63  88 CALM      29.97R FOG
LANSING        PTCLDY    63  61  93 CALM      29.97S
LAPEER         FAIR      63  61  95 CALM      29.96S
MASON          PTCLDY    61  60  97 CALM      29.96F FOG
MONROE         CLEAR     66  64  94 CALM      29.94S FOG
MT. CLEMENS    CLEAR     66  64  91 W6        29.94S
PONTIAC        CLEAR     64  61  90 W3        29.96S
PORT HOPE        N/A     66  63  90 VRB3      29.93S
PORT HURON     CLEAR     63  63 100 CALM      29.94S
TRI CITIES     CLEAR     62  59  90 NW3       29.97R
TROY           PTCLDY    67  63  86 CALM      29.97S
SAGINAW HB     CLEAR     61  61 100 CALM      29.96R
$$
MIZ043>046-050>051-056>058-064>065-071>073-077>080-211000-
SOUTHWEST LOWER MICHIGAN

CITY           SKY/WX    TMP DP  RH WIND       PRES   REMARKS
BATTLE CREEK   PTCLDY    67  64  90 CALM      29.96F
BENTON HARBOR  CLEAR     71  66  84 SW7       29.95S
BIG RAPIDS     FOG       56  56 100 CALM      29.97S VSB 1
COLDWATER      PTCLDY    69  68  96 SW6       29.97S FOG
FREMONT        CLOUDY    63  62  97 CALM      29.97R
HOLLAND        PTCLDY    65  63  93 CALM      29.95F
GRAND RAPIDS   CLEAR     64  64 100 N7        29.96F
IONIA          FAIR      61  60  97 NE3       29.95F FOG
KALAMAZOO      PTCLDY    66  63  90 S5        29.97S FOG
LUDINGTON      FOG       55  54  97 CALM      29.97S VSB 1/2
MARSHALL       MOCLDY    63  62  97 CALM      29.96S FOG
MOUNT PLEASANT CLEAR     57  56  97 CALM      29.97R FOG
MUSKEGON       PTCLDY    65  61  87 NE5       29.96S
SOUTH HAVEN    PTCLDY    68  68 100 SW3       29.95S
$$
MIZ016>042-211000-
NORTHERN LOWER MICHIGAN

CITY           SKY/WX    TMP DP  RH WIND       PRES   REMARKS
ALPENA         CLOUDY    63  62  97 W5        29.96R
BEAVER ISLAND  CLOUDY    62  61  96 CALM      29.98R
BELLAIRE       CLOUDY    63  61  94 CALM      29.97S FOG
CADILLAC       PTCLDY    55  55 100 CALM      29.98S
CHARLEVOIX     CLOUDY    64  64 100 W7        30.00S
FRANKFORT      MOCLDY    57  55  91 CALM      29.97S
GAYLORD        CLOUDY    60  60 100 W5        29.98S FOG
GRAYLING       CLOUDY    62  61  99 W3        29.99S
HARBOR SPRINGS CLOUDY    64  62  95 W3        29.97S FOG
HOUGHTON LAKE  CLOUDY    61  59  93 NW6       29.99R
MANISTEE       CLOUDY    55  52  88 CALM      29.98S VSB 3/4
OSCODA         MOCLDY    62  62  98 NW3       29.95R
PELLSTON       LGT RAIN  63  61  93 W5        29.97S
ROGERS CITY    CLOUDY    63  63 100 CALM      29.97S FOG
TRAVERSE CITY  CLOUDY    63  59  87 CALM      29.97S
$$
MIZ007>008-015-211000-
EASTERN UPPER MICHIGAN

CITY           SKY/WX    TMP DP  RH WIND       PRES   REMARKS
KINROSS        CLOUDY    59  57  94 W5        29.97R
MACKINAC ISLAN CLOUDY    60  60 100 W7        29.97R
NEWBERRY       FOG       57  57  99 W3        29.98S VSB 3/4
S. S. MARIE    CLOUDY    60  58  92 NW3       29.95R
MUNISING         N/A     60  56  86 CALM      29.97S
$$
MIZ004>006-011>014-085-211000-
CENTRAL UPPER MICHIGAN

CITY           SKY/WX    TMP DP  RH WIND       PRES   REMARKS
MANISTIQUE     CLOUDY    60  60 100 CALM      29.98R FOG
ESCANABA       CLOUDY    63  59  88 CALM      29.97S
MENOMINEE      MOCLDY    64  63  94 CALM      29.94F
SAWYER-GWINN   CLOUDY    59  58  97 CALM      29.98S FOG
$$
MIZ001>003-009>011-084-211000-
WESTERN UPPER MICHIGAN

CITY           SKY/WX    TMP DP  RH WIND       PRES   REMARKS
IRON MOUNTAIN  CLOUDY    63  60  90 CALM      29.96S
HOUGHTON       FOG       60  59  96 SE3       29.96S VSB 1/4
COPPER HARBOR    N/A     59  58  96 CALM      29.96S
IRONWOOD         N/A     54  54 100 CALM      29.93R VSB 1/2
$$

ABBREVIATIONS USED IN REMARKS
   TC - TEMPERATURE IN CELSIUS
  WCI - WIND CHILL INDEX
   HX - HEAT INDEX
  VSB - VISIBILITY




USA.gov is the U.S. government's official web portal to all federal, state and local government web resources and services.